[Iaude] MPEC T235: 2023 TD10 [a=2.95,e=0.63,i=11.0,H=22.5]

mpec at marsden.cfa.harvard.edu mpec at marsden.cfa.harvard.edu
Fri Oct 13 23:31:57 EDT 2023


M.P.E.C. 2023-T235                             Issued 2023 October 14, 03:30 UT

     The Minor Planet Electronic Circulars contain information on unusual
         minor planets, routine data on comets and natural satellites,
         and occasional editorial announcements.  They are published
    on behalf of Division F of the International Astronomical Union by the
          Minor Planet Center, Smithsonian Astrophysical Observatory,
                          Cambridge, MA 02138, U.S.A.
			  
             Prepared using the Tamkin Foundation Computer Network

                              MPC at CFA.HARVARD.EDU
            URL https://www.minorplanetcenter.net/    ISSN 1523-6714

                                   2023 TD10                                    


Observations:
     K23T10D*KC2023 10 12.15897 23 37 32.96 -23 50 59.7          18.7 GVET235W94
     K23T10D KC2023 10 12.16518 23 37 34.22 -23 50 11.0          19.5 GVET235W94
     K23T10D KC2023 10 12.17136 23 37 35.55 -23 49 22.2          19.8 GVET235W94
     K23T10D KC2023 10 12.23673 23 37 49.49 -23 40 43.9                VET235X10
     K23T10D KC2023 10 12.24229 23 37 50.65 -23 40 01.0                VET235X10
     K23T10D KC2023 10 12.24774 23 37 51.79 -23 39 19.8          19.5 GVET235X10
     K23T10D  C2023 10 12.26323623 37 55.58 -23 37 06.6                WET235X09
     K23T10D  C2023 10 12.26884523 37 56.83 -23 36 21.8                WET235X09
     K23T10D KC2023 10 12.54302423 39 02.64 -23 00 16.7          19.8 GVET235474
     K23T10D KC2023 10 12.54554223 39 03.19 -22 59 57.5          20.0 GVET235474
     K23T10D KC2023 10 12.54793923 39 03.66 -22 59 38.1          20.3 GVET235474
     K23T10D KC2023 10 12.90043323 40 28.51 -22 14 39.8          19.6 GXET235958
     K23T10D KC2023 10 12.90964023 40 30.50 -22 13 26.4          19.5 GXET235958
     K23T10D KC2023 10 12.91885823 40 32.43 -22 12 12.5          19.7 GXET235958
     K23T10D KB2023 10 12.96397023 40 41.93 -22 06 14.8          19.9 GVET235I93
     K23T10D KB2023 10 12.98120723 40 45.60 -22 03 58.9          19.6 GVET235I93
     K23T10D KC2023 10 13.15563523 41 27.52 -21 40 55.3          20.1 VuET235H21
     K23T10D KC2023 10 13.15778623 41 27.98 -21 40 38.4          20.4 VuET235H21
     K23T10D KC2023 10 13.16545723 41 29.58 -21 39 37.7          19.7 VuET235H21
     K23T10D KC2023 10 13.26689 23 41 49.64 -21 25 09.9          19.9 GVET235X10
     K23T10D KC2023 10 13.27245 23 41 50.87 -21 24 25.6          19.3 GVET235X10
     K23T10D KC2023 10 13.27807 23 41 52.08 -21 23 40.3          19.3 GVET235X10
     K23T10D KC2023 10 13.38643 23 42 21.63 -21 09 11.7          19.4 RqET235E94
     K23T10D KC2023 10 13.39920 23 42 24.30 -21 07 30.3          19.4 RqET235E94
     K23T10D KC2023 10 13.40936 23 42 26.44 -21 06 10.3          19.4 RqET235E94
     K23T10D 1C2023 10 13.85874923 44 09.740-20 07 55.00               VET235246
     K23T10D 1C2023 10 13.85909123 44 09.890-20 07 52.50               VET235246
     K23T10D 1C2023 10 13.85977523 44 10.050-20 07 47.60               VET235246
     K23T10D KC2023 10 13.94616 23 44 28.31 -19 56 15.6          19.5 GVET235104
     K23T10D KC2023 10 13.95389 23 44 29.94 -19 55 13.9          19.2 GVET235104
     K23T10D KC2023 10 13.96856 23 44 33.06 -19 53 16.9          19.7 GVET235104

Observer details:
104 San Marcello Pistoiese.  Observers P. Bacci, M. Maestripieri.  Measurers
    P. Bacci, L. Tesi, G. Fagioli.  0.60-m F4 Reflector + CCD.
246 Klet Observatory-KLENOT.  Observers M. Tichy, J. Ticha, M. Janda, M.
    Honkova.  Measurer M. Tichy.  1.06-m f/2.7 Reflector + 2048x2048 CCD.
474 Mount John Observatory, Lake Tekapo.  Observers A. C. Gilmore, P. M.
    Kilmartin.  Measurer P. M. Kilmartin.  1.0-m f/7.7 reflector + CCD.
958 Observatoire de Dax.  Observers P. Dupouy, J. B. de Vanssay.  Measurer P.
    Dupouy.  0.43-m f/2.7 Reflector + CCD.
E94 Possum Observatory, Gisborne.  Observer J. Drummond.  0.41-m f/4.5
    Newtonian + CCD.
H21 Astronomical Research Observatory, Westfield.  Observer R. Holmes.
    Measurers T. Linder, R. Holmes, L. Horn.  0.81-m f/4.0 astrograph + CCD.
I93 St Pardon de Conques.  Observer F. Losse.  0.40-m f/3.7 reflector + CMO.
W94 MAP, San Pedro de Atacama.  Observers A. Maury, G. Attard.  Measurers D.
    Parrott, F. Signoret, J.-M. Mari.  0.28-m f/2.2 Schmidt astrograph + CCD.
X09 Deep Random Survey, Rio Hurtado.  Observers A. Schnabel, D. Ruhela.
    Measurer S. Deen.  0.43-m reflector + CMOS.
X10 OVTLN, San Pedro de Atacama.  Observers A. Maury, G. Attard, F. Signoret.
    Measurers A. Maury, G. Attard, D. Parrott, J.-M. Mari.  0.50-m f/4
    reflector + CCD.

Orbital elements:
2023 TD10                                                Earth MOID = 0.1224 AU
Epoch 2023 Sept. 13.0 TT = JDT 2460200.5                Bell                    
M 356.32485              (2000.0)            P               Q                  
n   0.19446394     Peri.  336.01864     +0.99502245     -0.04818111             
a   2.9505976      Node    27.18361     +0.08822347     +0.83293543             
e   0.6252814      Incl.   11.00757     -0.04633524     +0.55126868             
P   5.07           H   22.53          G   0.15           U   9                  
Residuals in seconds of arc
231012 W94  0.5+  0.2+    231012 958  0.5+  2.2-    231013 E94  0.1+  0.5+
231012 W94  0.2-  0.1-    231012 958  0.9+  1.5-    231013 E94  0.1-  0.9+
231012 W94  0.2+  0.0     231012 958  0.5+  0.3-    231013 E94  0.1+  0.4+
231012 X10  0.2-  0.6+    231012 I93  0.3-  0.6+    231013 246  0.7-  0.8-
231012 X10  0.8-  0.7-    231012 I93  0.4-  0.4-    231013 246  0.4+  1.0-
231012 X10  1.4-  2.9-    231013 H21  0.2-  0.5+    231013 246  0.6+  1.6-
231012 X09  0.4-  0.2+    231013 H21  0.2-  0.4+    231013 104  0.1-  0.0
231012 X09  0.2-  0.4+    231013 H21  0.3-  0.3+    231013 104  0.0   0.1-
231012 474  0.3+  0.3+    231013 X10  0.3-  0.1-    231013 104  0.4+  0.5-
231012 474  0.3+  0.5-    231013 X10  0.1+  0.5-
231012 474  0.4-  0.1-    231013 X10  0.1-  0.4-

Ephemeris:
2023 TD10                a,e,i = 2.95, 0.63, 11                  q = 1.1056
Date    TT    R. A. (2000) Decl.     Delta      r    Elong.  Phase     V
2023 09 14    21 37 17.5 -60 12 30   0.2162  1.1295   119.9    50.6    21.3
...
2023 09 29    22 41 03.8 -47 32 44   0.1642  1.1063   125.9    47.2    20.6
...
2023 10 07    23 16 25.3 -34 30 53   0.1463  1.1076   134.8    39.9    20.2
...
2023 10 13    23 40 50.8 -22 00 40   0.1419  1.1149   143.3    32.4    19.9
2023 10 14    23 44 41.4 -19 48 18   0.1421  1.1166   144.7    31.1    19.9
2023 10 15    23 48 27.8 -17 35 22   0.1425  1.1185   146.0    29.9    19.8
...
2023 10 21    00 09 40.0 -04 38 57   0.1516  1.1327   152.9    23.6    19.8
...
2023 10 29    00 34 17.6 +09 37 56   0.1788  1.1592   156.1    20.3    20.1
...
2023 11 13    01 11 37.1 +25 09 22   0.2647  1.2289   151.5    22.6    21.2

M. P. C. Staff               (C) Copyright 2023 MPC           M.P.E.C. 2023-T235





More information about the Iaude mailing list